Location: La Trinit�
(48.1620°N, 3.4512°W)
Time: 16:49:28
(UTC+00:00)

Cosmos 44 - Pass Details

Date: 08 May 2021
Orbit: 571 x 791 km, 65.1° (Epoch: 24 June)

Event Time Altitude Azimuth Distance (km) Brightness Sun altitude
Rises 23:11:39 0° 322° (NW) 3,297 7.9 -23.2°
Reaches altitude 10° 23:14:07 10° 324° (NW) 2,361 7.0 -23.3°
Maximum altitude 23:19:36 79° 51° (NE) 797 3.5 -23.5°
Enters shadow 23:20:46 55° 125° (SE) 925 3.6 -23.6°
